This is the latest recevied weather packets stored in our database for station/object WS4FSC-7. If no packets are shown the sender has not sent any weather packets the latest 10 day(s).
| Time | Temp. | Humidity | Pressure | Rain* | Wind** | Luminosity | Snow |
|---|---|---|---|---|---|---|---|
| 1788022250 | 26.67° C | 91% | 1018 hPa | - | - | 38 W/m² | - |
| 1788021890 | 27.22° C | 90% | 1018 hPa | - | - | 37 W/m² | - |
| 1788021350 | 27.22° C | 91% | 1017 hPa | - | - | 37 W/m² | - |
| 1788020992 | 27.22° C | 90% | 1017 hPa | - | - | 37 W/m² | - |
| 1788019911 | 27.22° C | 91% | 1017 hPa | - | - | 40 W/m² | - |
| 1788019371 | 27.22° C | 92% | 1017 hPa | - | - | 54 W/m² | - |
| 1788019191 | 27.22° C | 92% | 1017 hPa | - | - | 59 W/m² | - |
| 1788018290 | 27.22° C | 89% | 1017 hPa | - | - | 63 W/m² | - |
| 1788017391 | 27.78° C | 87% | 1017 hPa | - | - | 72 W/m² | - |
| 1788015771 | 29.44° C | 82% | 1017 hPa | - | - | 172 W/m² | - |
| 1788014691 | 30.56° C | 81% | 1017 hPa | - | - | 193 W/m² | - |
| 1788014333 | 31.11° C | 81% | 1017 hPa | - | - | 208 W/m² | - |
| 1788013792 | 31.67° C | 74% | 1017 hPa | - | - | 174 W/m² | - |
| 1788012891 | 32.78° C | 73% | 1017 hPa | - | - | 730 W/m² | - |
| 1788011991 | 32.22° C | 72% | 1017 hPa | - | - | 645 W/m² | - |
| 1788011091 | 32.22° C | 74% | 1017 hPa | - | - | 615 W/m² | - |
| 1788010820 | 31.67° C | 78% | 1017 hPa | - | - | 584 W/m² | - |
| 1788010731 | 31.67° C | 78% | 1017 hPa | - | - | 584 W/m² | - |
| 1788010192 | 31.11° C | 79% | 1017 hPa | - | - | 256 W/m² | - |
| 1788009651 | 31.11° C | 79% | 1017 hPa | - | - | 422 W/m² | - |
| 1788008391 | 30° C | 84% | 1017 hPa | - | - | 276 W/m² | - |
| 1788008210 | 29.44° C | 84% | 1016 hPa | - | - | 253 W/m² | - |
| 1788008031 | 29.44° C | 84% | 1016 hPa | - | - | 245 W/m² | - |
| 1788007491 | 28.89° C | 86% | 1017 hPa | - | - | 93 W/m² | - |
| 1788007097 | 27.78° C | 92% | 1016 hPa | - | - | 97 W/m² | - |
* Rain since midnight (hover to see other rain measurements)
** Current wind speed in m/s (hover to see current wind gust speed)